This demonstration page uses our WeatherBlox Daily Observations layout. Learn more.

Left ArrowRight Arrow

47.50024, -111.30081

Hourly Observations for April 20, 2016

Temp ( °F °C ) Dew Point ( °F °C ) Humidity (%) Winds ( mph kmh ) Pressure ( in mb ) Visibility ( mi km ) Precip ( " mm )
12:53 am 00:53 Clear 45 7.2 39 3.9 80 80 WSW 6 9 29.94 1014 10 16 0.00 0.00
1:53 am 01:53 Clear 48 8.9 40 4.4 74 74 SW 3 6 29.92 1013 10 16 0.00 0.00
2:53 am 02:53 Clear 43 6.1 37 2.8 80 80 S 5 7 29.93 1014 10 16 0.00 0.00
3:53 am 03:53 Clear 41 5 35 1.7 79 79 SSW 5 7 29.93 1014 10 16 0.00 0.00
4:53 am 04:53 Clear 38 3.3 34 1.1 86 86 Calm 29.95 1014 10 16 0.00 0.00
5:53 am 05:53 Clear 34 1.1 32 0 92 92 WSW 7 11 29.97 1015 10 16 0.00 0.00
6:53 am 06:53 Sunny 34 1.1 32 0 92 92 WSW 8 13 29.99 1016 10 16 0.00 0.00
7:53 am 07:53 Sunny 43 6.1 39 3.9 86 86 WSW 7 11 29.99 1016 10 16 0.00 0.00
8:53 am 08:53 Sunny 50 10 41 5 71 71 SW 9 15 30.02 1017 10 16 0.00 0.00
9:53 am 09:53 Sunny 55 12.8 39 3.9 55 55 W 7 11 30.03 1017 10 16 0.00 0.00
10:53 am 10:53 Sunny 61 16.1 36 2.2 39 39 NNW 14 22 30.04 1017 10 16 0.00 0.00
11:53 am 11:53 Sunny 63 17.2 36 2.2 37 37 N 13 20 30.06 1018 10 16 0.00 0.00
12:53 pm 12:53 Sunny 66 18.9 37 2.8 34 34 N 8 13 30.05 1018 10 16 0.00 0.00
1:53 pm 13:53 Sunny 67 19.4 38 3.3 35 35 N 7 11 30.03 1017 10 16 0.00 0.00
2:53 pm 14:53 Sunny 70 21.1 36 2.2 29 29 N 6 9 30.04 1017 10 16 0.00 0.00
3:53 pm 15:53 Sunny 71 21.7 35 1.7 27 27 NNE 3 6 30.04 1017 10 16 0.00 0.00
4:53 pm 16:53 Sunny 72 22.2 35 1.7 26 26 Calm 30.04 1017 10 16 0.00 0.00
5:53 pm 17:53 Sunny 72 22.2 36 2.2 27 27 VRB 5 7 30.05 1018 10 16 0.00 0.00
6:53 pm 18:53 Sunny 69 20.6 37 2.8 31 31 E 8 13 30.05 1018 10 16 0.00 0.00
7:53 pm 19:53 Sunny 64 17.8 43 6.1 46 46 NE 12 19 30.04 1017 10 16 0.00 0.00
8:53 pm 20:53 Clear 58 14.4 42 5.6 56 56 NE 10 17 30.06 1018 10 16 0.00 0.00
9:53 pm 21:53 Clear 56 13.3 41 5 57 57 E 6 9 30.05 1018 10 16 0.00 0.00
10:53 pm 22:53 Clear 52 11.1 40 4.4 64 64 ESE 6 9 30.05 1018 10 16 0.00 0.00
11:53 pm 23:53 Clear 53 11.7 41 5 64 64 ESE 6 9 30.04 1017 10 16 0.00 0.00

Powered by AerisWeather